Flag for Turkey Weather past 2 weeks in Istanbul, Turkey

Now
75 °F

Passing clouds.


Feels Like: 77 °F
Forecast: 72 / 81 °F
Wind: 15 mph from Northeast

Location: Istanbul Ataturk Airport

Current Time: Aug 29, 2014 at 3:32:20 AM

Latest Report: Aug 29, 2014 at 2:50 AM


Visibility: N/A

Pressure: 29.98 "Hg

Humidity: 65%

Dew point: 63 °F

Location of IstanbulLocation

Historic Weather in Istanbul — Graph

°F

Istanbul temperature yesterday

Maximum temperature yesterday: 84 °F (at 11:50 AM)
Minimum temperature yesterday: 73 °F (at 3:50 AM)
Average temperature yesterday: 79 °F

Past Weeks' High & Low Weather Summary

 TemperatureHumidityPressure
High93 °F (Aug 16, 4:20 PM)89% (Aug 15, 5:20 AM)30.04 "Hg (Aug 15, 5:20 AM)
Low70 °F (Aug 17, 9:50 PM)28% (Aug 16, 4:20 PM)29.68 "Hg (Aug 17, 2:20 PM)
Average80 °F65%29.90 "Hg
* Reported Aug 14 2:20 AM — Aug 29 2:20 AM, Istanbul, Weather by CustomWeather, © 2014

Note: Actual official high and low records may vary slightly from our data, if they occured in-between our weather recording intervals... More about our weather records

Advertising

Istanbul weather history for previous 24 hours

 ConditionsComfort  
Time TempWeatherWind HumidityBarometerVisibility
2:20 AM
Aug 29
77 °FPassing clouds.12 mph57%29.98 "HgN/A
1:50 AM77 °FPassing clouds.18 mph57%29.98 "HgN/A
1:20 AM77 °FPassing clouds.18 mph61%29.98 "HgN/A
12:50 AM77 °FPassing clouds.17 mph61%29.98 "HgN/A
12:20 AM77 °FPassing clouds.20 mph65%29.98 "HgN/A
11:50 PM
Aug 28
77 °FPassing clouds.18 mph65%29.98 "HgN/A
11:20 PM77 °FClear.17 mph65%29.98 "Hg10 mi
10:50 PM77 °FClear.17 mph65%29.98 "Hg10 mi
10:20 PM79 °FClear.18 mph61%29.98 "Hg10 mi
9:50 PM79 °FClear.15 mph65%29.95 "Hg10 mi
9:20 PM79 °FClear.14 mph65%29.95 "Hg10 mi
8:50 PM79 °FPassing clouds.20 mph65%29.95 "HgN/A
8:20 PM77 °FPassing clouds.15 mph69%29.95 "HgN/A
7:50 PM77 °FPassing clouds.22 mph69%29.92 "HgN/A
7:20 PM79 °FPassing clouds.21 mph65%29.92 "HgN/A
6:50 PM79 °FPassing clouds.20 mph65%29.92 "HgN/A
6:20 PM79 °FPassing clouds.18 mph61%29.92 "HgN/A
5:50 PM81 °FPassing clouds.18 mph58%29.92 "HgN/A
5:20 PM81 °FPassing clouds.21 mph58%29.92 "HgN/A
4:50 PM81 °FPassing clouds.23 mph58%29.92 "HgN/A
4:20 PM82 °FPassing clouds.22 mph55%29.89 "HgN/A
3:50 PM82 °FPassing clouds.21 mph55%29.89 "HgN/A
3:20 PM82 °FPassing clouds.21 mph51%29.89 "HgN/A
2:50 PM82 °FPassing clouds.24 mph55%29.89 "HgN/A
2:20 PM82 °FPassing clouds.24 mph58%29.89 "HgN/A
1:50 PM82 °FPassing clouds.24 mph58%29.89 "HgN/A
1:20 PM82 °FPassing clouds.25 mph58%29.89 "HgN/A
12:50 PM84 °FPassing clouds.28 mph55%29.86 "HgN/A
12:20 PM82 °FPassing clouds.26 mph62%29.86 "HgN/A
11:50 AM84 °FPassing clouds.25 mph55%29.86 "HgN/A
11:20 AM82 °FPassing clouds.26 mph58%29.86 "HgN/A
10:50 AM82 °FSunny.25 mph58%29.86 "Hg10 mi
10:20 AM82 °FSunny.25 mph58%29.86 "Hg10 mi
9:50 AM82 °FSunny.24 mph58%29.83 "Hg10 mi
9:20 AM81 °FSunny.20 mph62%29.83 "Hg10 mi
8:50 AM79 °FSunny.16 mph70%29.83 "Hg10 mi
8:20 AM77 °FSunny.7 mph65%29.83 "Hg10 mi
7:50 AM77 °FSunny.1 mph79%29.83 "Hg10 mi
7:20 AM75 °FClear.1 mph83%29.83 "Hg10 mi
6:50 AM73 °FClear.5 mph83%29.80 "Hg10 mi
6:20 AM73 °FClear.1 mph83%29.80 "Hg10 mi
5:50 AM73 °FClear.1 mph83%29.80 "Hg10 mi
5:20 AM73 °FClear.2 mph83%29.77 "Hg10 mi
4:50 AM73 °FClear.3 mph83%29.77 "Hg10 mi
4:20 AM73 °FClear.3 mph83%29.77 "Hg10 mi
3:50 AM73 °FClear.2 mph83%29.77 "Hg10 mi
3:20 AM75 °FClear.1 mph78%29.77 "Hg10 mi
Weather by CustomWeather, © 2014

See weather overviewHow to use our weather pages